FW5298 Weather Reports


time (UTC)temp
F
wind
direction
speed
knots
gust
knots
rain 1hr
in
rain 24hr
in
rain mn
in
humidity
%
barometer
mb
20260506134725 80 194 2.6 5.2 0.00 0.00 0.00 34 1010.7
20260506133723 80 186 3.5 11.3 0.00 0.00 0.00 33 1010.7
20260506132721 81 183 2.6 5.2 0.00 0.00 0.00 33 1010.7
20260506131718 81 190 2.6 6.1 0.00 0.00 0.00 33 1010.8
20260506130737 81 204 3.5 13.9 0.00 0.00 0.00 33 1010.8
20260506125714 80 192 3.5 7.0 0.00 0.00 0.00 33 1010.9
20260506124732 81 184 3.5 8.7 0.00 0.00 0.00 33 1011.0
20260506123712 80 182 2.6 5.2 0.00 0.00 0.00 33 1011.0
20260506122709 80 196 2.6 7.0 0.00 0.00 0.00 33 1011.2
20260506121708 80 170 3.5 6.1 0.00 0.00 0.00 33 1011.2
20260506120706 80 185 3.5 18.2 0.00 0.00 0.00 32 1011.3
20260506115706 80 189 2.6 5.2 0.00 0.00 0.00 32 1011.4
20260506114703 80 178 3.5 6.1 0.00 0.00 0.00 32 1011.5
20260506113700 80 173 3.5 8.7 0.00 0.00 0.00 32 1011.5
20260506112657 80 181 3.5 7.8 0.00 0.00 0.00 35 1011.6
20260506111656 79 177 3.5 7.0 0.00 0.00 0.00 34 1011.6
20260506110655 79 172 3.5 13.0 0.00 0.00 0.00 35 1011.7
20260506105712 79 189 3.5 7.8 0.00 0.00 0.00 35 1011.8
20260506104649 79 177 3.5 9.6 0.00 0.00 0.00 35 1011.8
20260506103649 78 181 2.6 12.2 0.00 0.00 0.00 36 1011.8
20260506102646 78 194 1.7 6.1 0.00 0.00 0.00 36 1011.8
20260506101644 78 174 3.5 8.7 0.00 0.00 0.00 36 1011.9
20260506100642 77 177 3.5 6.1 0.00 0.00 0.00 37 1012.0
20260506095640 77 168 3.5 12.2 0.00 0.00 0.00 36 1012.1
20260506094637 77 184 3.5 7.8 0.00 0.00 0.00 38 1012.1
20260506093637 76 198 2.6 6.1 0.00 0.00 0.00 39 1012.2
20260506092633 75 190 3.5 9.6 0.00 0.00 0.00 39 1012.2
20260506091632 74 185 2.6 5.2 0.00 0.00 0.00 40 1012.2
20260506090630 73 185 2.6 6.1 0.00 0.00 0.00 42 1012.2
20260506085628 72 178 2.6 6.1 0.00 0.00 0.00 42 1012.2
20260506084625 72 177 3.5 7.0 0.00 0.00 0.00 43 1012.2
20260506083623 71 177 3.5 14.8 0.00 0.00 0.00 43 1012.2
20260506082623 69 187 3.5 12.2 0.00 0.00 0.00 45 1012.2
20260506081619 68 181 3.5 6.1 0.00 0.00 0.00 46 1012.2
20260506080617 67 171 3.5 10.4 0.00 0.00 0.00 46 1012.2
20260506072609 65 172 3.5 6.1 0.00 0.00 0.00 48 1012.3
20260506071607 64 176 3.5 6.1 0.00 0.00 0.00 49 1012.2
20260506070606 63 177 2.6 6.1 0.00 0.00 0.00 50 1012.2
20260506061616 60 175 3.5 6.1 0.00 0.00 0.00 52 1012.4
20260506060553 59 181 3.5 10.4 0.00 0.00 0.00 53 1012.4
20260506050541 51 190 1.7 7.8 0.00 0.00 0.00 64 1012.2
20260506044544 50 194 0.9 3.5 0.00 0.00 0.00 67 1012.3
20260506043535 49 202 1.7 4.3 0.00 0.00 0.00 67 1012.3
20260506042535 48 227 0.9 6.1 0.00 0.00 0.00 67 1012.2
20260506041535 48 225 0.9 2.6 0.00 0.00 0.00 67 1012.2
20260506040529 47 203 0.9 7.8 0.00 0.00 0.00 67 1012.1
20260506035529 47 202 1.7 4.3 0.00 0.00 0.00 66 1012.1
20260506034526 47 187 1.7 8.7 0.00 0.00 0.00 66 1012.0
20260506033524 47 194 1.7 7.0 0.00 0.00 0.00 66 1012.0
20260506032520 47 193 1.7 2.6 0.00 0.00 0.00 66 1011.9
20260506031520 47 195 1.7 3.5 0.00 0.00 0.00 66 1011.8
20260506030518 47 219 0.9 2.6 0.00 0.00 0.00 66 1011.7
20260506025516 47 194 1.7 5.2 0.00 0.00 0.00 66 1011.6
20260506024513 47 201 0.9 2.6 0.00 0.00 0.00 66 1011.6
20260506023511 47 207 1.7 6.1 0.00 0.00 0.00 67 1011.5
20260506022509 47 188 2.6 12.2 0.00 0.00 0.00 67 1011.5
20260506021508 48 200 1.7 10.4 0.00 0.00 0.00 67 1011.4
20260506020512 48 190 1.7 4.3 0.00 0.00 0.00 67 1011.4
20260506015503 48 185 2.6 5.2 0.00 0.00 0.00 67 1011.4
20260506014000 48 205 1.7 9.6 0.00 0.00 0.00 67 1011.5
20260506012957 49 225 0.9 9.6 0.00 0.00 0.00 66 1011.4
20260506011958 50 195 0.9 3.5 0.00 0.00 0.00 66 1011.4
20260506011014 50 202 1.7 9.6 0.00 0.00 0.00 66 1011.4
20260506005951 50 183 2.6 7.8 0.00 0.00 0.00 66 1011.3
20260506004950 51 172 3.5 5.2 0.00 0.00 0.00 66 1011.3
20260506003950 51 174 3.5 7.8 0.00 0.00 0.00 66 1011.2
20260506002946 51 181 3.5 6.1 0.00 0.00 0.00 65 1011.2
20260506002004 51 181 2.6 6.1 0.00 0.00 0.00 65 1011.2
20260506001003 52 191 1.7 4.3 0.00 0.00 0.00 64 1011.1
20260505235940 52 182 1.7 4.3 0.00 0.00 0.00 64 1011.1
20260505234938 52 188 1.7 5.2 0.00 0.00 0.00 63 1011.1
20260505233935 53 182 2.6 6.1 0.00 0.00 0.00 63 1011.0
20260505232934 53 183 3.5 9.6 0.00 0.00 0.00 62 1011.1
20260505231932 54 173 3.5 6.1 0.00 0.00 0.00 61 1011.1
20260505230929 54 173 3.5 6.1 0.00 0.00 0.00 60 1011.0
20260505225928 55 180 3.5 8.7 0.00 0.00 0.00 59 1011.1
20260505224926 55 188 1.7 5.2 0.00 0.00 0.00 58 1011.1
20260505223924 56 183 1.7 4.3 0.00 0.00 0.00 56 1011.1
20260505222922 57 195 1.7 7.8 0.00 0.00 0.00 55 1011.1
20260505221919 58 197 1.7 7.8 0.00 0.00 0.00 54 1011.1
20260505220917 59 188 0.9 3.5 0.00 0.00 0.00 53 1011.2
20260505215915 59 175 2.6 5.2 0.00 0.00 0.00 52 1011.1
20260505214914 60 184 1.7 4.3 0.00 0.00 0.00 51 1011.1
20260505213912 60 178 2.6 10.4 0.00 0.00 0.00 50 1011.0
20260505212909 61 190 1.7 5.2 0.00 0.00 0.00 50 1011.0
20260505211928 61 181 1.7 6.1 0.00 0.00 0.00 49 1011.0
20260505210906 61 183 1.7 6.1 0.00 0.00 0.00 49 1011.0
20260505205925 62 186 1.7 11.3 0.00 0.00 0.00 48 1011.1
20260505204921 62 182 1.7 4.3 0.00 0.00 0.00 48 1011.1
20260505203859 62 181 1.7 4.3 0.00 0.00 0.00 48 1011.1
20260505202857 62 174 2.6 10.4 0.00 0.00 0.00 48 1011.1
20260505201856 62 181 1.7 7.0 0.00 0.00 0.00 47 1011.1
20260505200854 63 209 1.7 12.2 0.00 0.00 0.00 48 1011.1
20260505195852 63 206 1.7 3.5 0.00 0.00 0.00 48 1011.1
20260505194850 63 202 1.7 5.2 0.00 0.00 0.00 47 1011.0
20260505193907 64 199 1.7 3.5 0.00 0.00 0.00 47 1010.9
20260505192846 64 203 1.7 3.5 0.00 0.00 0.00 46 1010.8
20260505191845 65 188 1.7 9.6 0.00 0.00 0.00 45 1010.8
20260505190842 65 198 1.7 13.9 0.00 0.00 0.00 44 1010.8
20260505185840 66 198 1.7 4.3 0.00 0.00 0.00 43 1010.7
20260505184837 67 204 1.7 5.2 0.00 0.00 0.00 42 1010.6
20260505183836 68 191 1.7 5.2 0.00 0.00 0.00 41 1010.5
20260505182833 68 178 3.5 6.1 0.00 0.00 0.00 40 1010.4
20260505181832 69 187 2.6 6.1 0.00 0.00 0.00 38 1010.4
20260505180850 70 190 1.7 2.6 0.00 0.00 0.00 36 1010.3
20260505175849 71 177 1.7 11.3 0.00 0.00 0.00 36 1010.2
20260505174827 72 187 1.7 5.2 0.00 0.00 0.00 35 1010.2
20260505173824 73 206 1.7 3.5 0.00 0.00 0.00 35 1010.2
20260505172822 73 199 1.7 7.0 0.00 0.00 0.00 34 1010.2
20260505171820 74 220 0.9 9.6 0.00 0.00 0.00 34 1010.2
20260505170818 74 216 0.9 2.6 0.00 0.00 0.00 34 1010.2
20260505165816 75 188 1.7 9.6 0.00 0.00 0.00 33 1010.2
20260505164815 76 214 0.9 1.7 0.00 0.00 0.00 34 1010.2
20260505163812 76 218 0.9 6.1 0.00 0.00 0.00 33 1010.3
20260505162810 77 206 0.9 2.6 0.00 0.00 0.00 33 1010.3
20260505161808 78 187 1.7 5.2 0.00 0.00 0.00 32 1010.3
20260505160825 78 187 1.7 5.2 0.00 0.00 0.00 32 1010.3
20260505152758 80 184 1.7 4.3 0.00 0.00 0.00 29 1010.4
20260505151756 80 185 1.7 3.5 0.00 0.00 0.00 29 1010.5
20260505150755 81 214 0.9 7.0 0.00 0.00 0.00 29 1010.6